Terug naar catalogus

STARLINK-31255

ActiefCommunicatieVLEO
NORAD 58893·PAYLOAD·🇺🇸 United States

Gelanceerd Jan 29, 2024 vanaf Vandenberg Space Force Base

Loading…

Volgende Passages (komende 24 uur)

TLE

VersSource: CelesTrak SupGP

Epoch: Sep 15, 2026, 03:26 UTC

1 58893C 24020T   26258.14354167  .00012450  00000+0  36788-3 0  2589
2 58893  53.1562 158.5102 0001331  83.0602 240.2990 15.34380416    18

Volg STARLINK-31255 in realtime met AllMySat

Download on the App Store